Location: Unspecified
(0.0000°N, 0.0000°E)
Time: 06:56:24
(UTC+02:00)

Vanguard 1 - Visible Passes

Search period start: 06 July 2015 00:00
Search period end: 16 July 2015 00:00
Orbit: 650 x 3835 km, 34.2° (Epoch: 04 July)

Date Brightness Start Highest point End Pass type
(mag) Time Alt. Az. Time Alt. Az. Time Alt. Az.
06 Jul 14.1 03:20:12 11° SSE 03:20:12 11° SSE 03:21:04 10° SE visible
06 Jul 13.6 05:32:56 19° SSW 05:43:23 28° SSE 06:01:56 10° ESE visible
06 Jul 11.2 22:32:51 10° W 22:37:36 38° SW 22:37:36 38° SW visible
07 Jul 13.9 03:40:10 14° SSE 03:40:10 14° SSE 03:46:14 10° SE visible
07 Jul 13.6 05:52:54 19° SSW 06:06:35 34° SSE 06:26:08 10° E visible
07 Jul 9.9 20:34:15 10° NW 20:38:44 54° NE 20:45:00 11° ESE visible
07 Jul 12.0 22:54:52 10° W 22:57:45 22° SW 22:57:45 22° SW visible
08 Jul 13.8 04:00:09 18° SSE 04:00:09 18° SSE 04:12:07 10° SE visible
08 Jul 13.5 06:12:53 17° SSW 06:29:30 42° SSE 06:49:38 10° E visible
08 Jul 9.7 20:55:13 10° WNW 20:59:52 83° SW 21:05:11 17° SE visible
08 Jul 12.6 23:17:27 10° WSW 23:17:55 11° WSW 23:17:55 11° WSW visible
09 Jul 13.6 04:20:10 22° SSE 04:21:10 22° SSE 04:37:57 10° ESE visible
09 Jul 13.3 06:32:54 15° SW 06:52:08 51° SSE 07:12:31 10° ENE visible
09 Jul 10.4 21:16:33 10° WNW 21:21:12 47° SSW 21:25:21 21° SSE visible
10 Jul 13.5 04:40:12 25° S 04:44:21 27° SSE 05:03:13 10° E visible
10 Jul 13.2 06:52:57 12° SW 07:14:32 63° SE 07:34:53 10° ENE visible
10 Jul 11.2 21:38:21 10° W 21:42:47 29° SSW 21:45:32 22° S visible
11 Jul 13.3 05:00:17 28° S 05:07:16 34° SSE 05:27:41 10° E visible
11 Jul 13.1 07:13:28 10° SW 07:36:43 76° SE 07:56:50 10° ENE visible
11 Jul 11.8 22:00:43 10° WSW 22:04:37 18° SSW 22:05:42 18° S visible
12 Jul 14.0 03:07:38 13° SE 03:07:38 13° SE 03:11:40 10° SE visible
12 Jul 13.2 05:20:22 30° S 05:29:55 42° SSE 05:51:24 10° E visible
12 Jul 13.0 07:35:07 10° SW 07:58:47 90° NW 08:18:27 10° NE visible
12 Jul 12.3 22:24:09 10° SW 22:25:53 12° SSW 22:25:53 12° SSW visible
13 Jul 13.8 03:27:45 19° SE 03:27:45 19° SE 03:38:00 10° ESE visible
13 Jul 13.2 05:40:29 30° SSW 05:52:19 52° SE 06:14:27 10° ENE visible
14 Jul 13.5 03:47:53 26° SE 03:47:53 26° SE 04:03:38 10° E visible
14 Jul 13.0 06:00:37 29° SSW 06:14:33 64° SE 06:36:58 10° ENE visible
14 Jul 11.3 20:43:50 10° WSW 20:47:21 21° SSW 20:51:35 10° SSE visible
15 Jul 13.3 04:08:02 33° SSE 04:08:13 33° SSE 04:28:23 10° E visible
15 Jul 13.0 06:20:46 26° SW 06:36:38 78° SE 06:59:02 10° ENE visible
15 Jul 11.9 21:07:02 10° SW 21:09:06 12° SSW 21:11:14 10° S visible
